Location: Pl�tzky
(52.0521°N, 11.8020°E)
Time: 09:04:08
(UTC+00:00)

SeaSat 1 - Pass Details

Date: 22 November 2019
Orbit: 745 x 747 km, 108.0° (Epoch: 14 December)

Event Time Altitude Azimuth Distance (km) Brightness Sun altitude
Rises 18:11:00 0° 176° (S) 3,176 5.7 -26.8°
Reaches altitude 10° 18:13:28 10° 186° (S) 2,257 5.0 -27.2°
Maximum altitude 18:17:51 32° 249° (WSW) 1,260 4.1 -27.8°
Drops below altitude 10° 18:22:17 10° 313° (NW) 2,273 5.5 -28.5°
Sets 18:24:48 0° 323° (NW) 3,202 6.3 -28.9°
